Starlink 34663

operational
NORAD ID: 64807 Int'l Des: 2025-150 Owner: SPXS Country: US Constellation: starlink
LEOCIRCULAR

关于 Starlink 34663

正在加载描述...

实时位置

正在加载3D地球...

即将过境

高度历史

Altitude vs Time

uPlot chart will show altitude changes over time

两行轨道根数

1 64807U 25150T 25340.80905859 .00073282 00000-0 16617-2 0 9991
2 64807 70.0021 9.8547 0002037 317.7188 42.3837 15.42700712 22579
Epoch: Dec 6, 2025 • Age: 11 hours

当前状态

高度 447.4 km
速度 7.65 km/s
星下点 57.60°N, 131.71°W
发射日期 Jul 16, 2025
运行时间 0.3 years
类型 internet

技术详情

分类 Payload
质量 575.00 kg
干质量 530.00 kg
总质量 575.00 kg
长度 0.30 m
直径 4.10 m
跨度 29.00 m
形状 Box + pan
制造商 SPXS
平台类型 Starlink V2MO
阶段状态 In Orbit
所有者/国家 SPXS/US

大型星座

Loading constellations...